Terminal Aerodrome Forecast
Issued by NWS

Home | Current Version | Previous Version | Text Only | Print | Product List | Glossary On
Versions: 1 2 3 4 5 6 7 8 9 10 11 12 13 14 15 16
000
FTUS45 KVEF 172300
TAFEED
TAF
KEED 172320Z 1800/1824 15008KT P6SM SCT100 BKN150
     FM180400 24008KT P6SM FEW100 BKN250
     FM181400 VRB05KT P6SM FEW100
     FM181900 15008KT P6SM SCT100=

USA.gov is the U.S. government's official web portal to all federal, state and local government web resources and services.